Location: Philomena
(55.1756°N, 111.6233°W)
Time: 08:50:14
(UTC+00:00)

PCSat - Pass Details

Date: 11 December 2023
Orbit: 784 x 791 km, 67.0° (Epoch: 23 February)

Event Time Altitude Azimuth Distance (km) Brightness Sun altitude
Exits shadow 11:07:05 23° 44° (NE) 1,629 11.6 -37.4°
Drops below altitude 10° 11:09:04 10° 43° (NE) 2,364 12.6 -37.2°
Sets 11:11:29 0° 43° (NE) 3,297 13.5 -36.8°
